AL7BX-WX Weather Reports


time (UTC)temp
C
wind
direction
speed
KPH
gust
KPH
rain 1hr
cm
rain 24hr
cm
rain mn
cm
humidity
%
barometer
mb
20260504232013 17 203 14.5 29.0 0.00 0.00 0.00 33
20260504231113 17 190 16.1 33.8 0.00 0.00 0.00 33
20260504230003 17 197 19.3 33.8 0.00 0.00 0.00 33
20260504225403 17 210 16.1 33.8 0.00 0.00 0.00 33
20260504224503 18 202 17.7 33.8 0.00 0.00 0.00 34
20260504223603 18 205 16.1 37.0 0.00 0.00 0.00 34
20260504222703 18 203 17.7 32.2 0.00 0.00 0.00 33
20260504222013 18 203 17.7 35.4 0.00 0.00 0.00 33
20260504220903 19 204 17.7 32.2 0.00 0.00 0.00 31
20260504220003 18 206 16.1 33.8 0.00 0.00 0.00 32
20260504215403 18 208 16.1 32.2 0.00 0.00 0.00 33
20260504214713 19 209 16.1 33.8 0.00 0.00 0.00 32
20260504213603 19 203 16.1 33.8 0.00 0.00 0.00 32
20260504212703 19 211 14.5 37.0 0.00 0.00 0.00 32
20260504211803 18 208 16.1 37.0 0.00 0.00 0.00 32
20260504210903 18 220 12.9 25.7 0.00 0.00 0.00 33
20260504210004 19 183 17.7 32.2 0.00 0.00 0.00 33
20260504205403 20 175 17.7 38.6 0.00 0.00 0.00 32
20260504204714 20 180 19.3 38.6 0.00 0.00 0.00 33
20260504203603 19 203 19.3 33.8 0.00 0.00 0.00 33
20260504202703 18 207 17.7 30.6 0.00 0.00 0.00 35
20260504201803 18 209 16.1 32.2 0.00 0.00 0.00 36
20260504200903 18 204 16.1 33.8 0.00 0.00 0.00 36
20260504200003 18 211 14.5 33.8 0.00 0.00 0.00 36
20260504195403 18 216 16.1 33.8 0.00 0.00 0.00 36
20260504194503 18 208 14.5 29.0 0.00 0.00 0.00 38
20260504193813 19 198 12.9 29.0 0.00 0.00 0.00 36
20260504192703 18 201 14.5 27.4 0.00 0.00 0.00 35
20260504191803 18 212 14.5 35.4 0.00 0.00 0.00 38
20260504191113 18 212 16.1 33.8 0.00 0.00 0.00 40
20260504190003 18 193 16.1 30.6 0.00 0.00 0.00 39
20260504185403 18 195 14.5 30.6 0.00 0.00 0.00 40
20260504184503 18 188 16.1 30.6 0.00 0.00 0.00 41
20260504183603 18 185 16.1 29.0 0.00 0.00 0.00 40
20260504182703 17 177 16.1 27.4 0.00 0.00 0.00 39
20260504181803 17 175 16.1 29.0 0.00 0.00 0.00 42
20260504180903 17 194 19.3 37.0 0.00 0.00 0.00 42
20260504180214 18 188 19.3 32.2 0.00 0.00 0.00 41
20260504175403 17 186 19.3 35.4 0.00 0.00 0.00 43
20260504174503 16 189 16.1 30.6 0.00 0.00 0.00 48
20260504173603 16 195 16.1 33.8 0.00 0.00 0.00 45
20260504172703 17 206 4.8 30.6 0.00 0.00 0.00 42
20260504172013 16 234 1.6 6.4 0.00 0.00 0.00 45
20260504170903 16 269 6.4 11.3 0.00 0.00 0.00 45
20260504170214 16 273 6.4 11.3 0.00 0.00 0.00 47
20260504150903 13 144 8.0 22.5 0.00 0.00 0.00 52
20260504140903 12 171 3.2 4.8 0.00 0.00 0.00 65
20260504081803 8 80 0.0 3.2 0.00 0.00 0.00 60
20260504080903 8 80 1.6 6.4 0.00 0.00 0.00 57
20260504050003 14 159 3.2 6.4 0.00 0.00 0.00 42
20260504045613 14 154 3.2 9.7 0.00 0.00 0.00 42
20260504044712 14 157 1.6 11.3 0.00 0.00 0.00 42
20260504043603 15 284 0.0 3.2 0.00 0.00 0.00 40
20260504042703 15 279 4.8 9.7 0.00 0.00 0.00 40
20260504042012 15 257 3.2 9.7 0.00 0.00 0.00 39
20260504040903 16 114 3.2 8.0 0.00 0.00 0.00 38
20260504040003 16 121 8.0 19.3 0.00 0.00 0.00 37
20260504035403 16 198 6.4 19.3 0.00 0.00 0.00 33
20260504034505 16 121 3.2 4.8 0.00 0.00 0.00 38
20260504033813 16 126 4.8 11.3 0.00 0.00 0.00 38
20260504032703 15 180 4.8 11.3 0.00 0.00 0.00 39
20260504031803 16 155 6.4 14.5 0.00 0.00 0.00 39
20260504030903 16 144 8.0 20.9 0.00 0.00 0.00 39
20260504030004 16 153 9.7 20.9 0.00 0.00 0.00 38
20260504025403 16 147 9.7 25.7 0.00 0.00 0.00 38
20260504024503 16 159 8.0 20.9 0.00 0.00 0.00 38
20260504023603 15 119 6.4 16.1 0.00 0.00 0.00 39
20260504022703 15 110 6.4 17.7 0.00 0.00 0.00 41
20260504021803 15 96 11.3 27.4 0.00 0.00 0.00 41
20260504020903 15 107 11.3 27.4 0.00 0.00 0.00 42
20260504020003 15 110 11.3 27.4 0.00 0.00 0.00 42
20260504015403 16 129 11.3 25.7 0.00 0.00 0.00 41
20260504014503 16 139 9.7 24.1 0.00 0.00 0.00 39
20260504013603 17 148 14.5 29.0 0.00 0.00 0.00 35
20260504012914 17 149 17.7 33.8 0.00 0.00 0.00 34
20260504011803 18 141 12.9 29.0 0.00 0.00 0.00 31
20260504010903 18 149 11.3 20.9 0.00 0.00 0.00 31
20260504010214 18 151 8.0 20.9 0.00 0.00 0.00 31
20260504005403 18 153 9.7 24.1 0.00 0.00 0.00 31
20260504004503 18 139 14.5 33.8 0.00 0.00 0.00 30
20260504003603 18 141 19.3 33.8 0.00 0.00 0.00 30
20260504002913 18 149 20.9 37.0 0.00 0.00 0.00 30
20260504001803 20 156 11.3 43.5 0.00 0.00 0.00 28
20260504000903 20 153 9.7 20.9 0.00 0.00 0.00 26
20260504000003 21 153 12.9 25.7 0.00 0.00 0.00 25
20260503235403 21 164 12.9 27.4 0.00 0.00 0.00 25
20260503234503 21 154 16.1 29.0 0.00 0.00 0.00 25
20260503233603 22 170 14.5 35.4 0.00 0.00 0.00 24
20260503232703 23 187 9.7 20.9 0.00 0.00 0.00 23